This is the latest recevied weather packets stored in our database for station/object N5DGC. If no packets are shown the sender has not sent any weather packets the latest 1 day(s).
| Time | Temp. | Humidity | Pressure | Rain* | Wind** | Luminosity | Snow |
|---|---|---|---|---|---|---|---|
| 1778047740 | 9.44° C | 64% | 1233.1 hPa | 0 mm | 0 m/s | 0 W/m² | - |
| 1778047438 | 9.44° C | 64% | 1233.1 hPa | 0 mm | 0.45 m/s, 52° | 0 W/m² | - |
| 1778047135 | 9.44° C | 63% | 1233.2 hPa | 0 mm | 0.89 m/s, 53° | 0 W/m² | - |
| 1778046832 | 9.44° C | 63% | 1233.1 hPa | 0 mm | 0.89 m/s, 88° | 0 W/m² | - |
| 1778046529 | 10° C | 62% | 1233.1 hPa | 0 mm | 0.89 m/s, 74° | 0 W/m² | - |
| 1778046226 | 10° C | 62% | 1232.9 hPa | 0 mm | 0.45 m/s, 71° | 0 W/m² | - |
| 1778045922 | 10° C | 62% | 1233.2 hPa | 0 mm | 0.89 m/s, 67° | 0 W/m² | - |
| 1778045620 | 10° C | 62% | 1233.1 hPa | 0 mm | 0.89 m/s, 69° | 0 W/m² | - |
| 1778045318 | 10° C | 62% | 1233.2 hPa | 0 mm | 0.45 m/s, 84° | 0 W/m² | - |
| 1778045017 | 10° C | 62% | 1233.3 hPa | 0 mm | 0.89 m/s, 89° | 0 W/m² | - |
| 1778044714 | 10° C | 61% | 1233.2 hPa | 0 mm | 0.89 m/s, 78° | 0 W/m² | - |
| 1778044410 | 10° C | 61% | 1233.1 hPa | 0 mm | 0 m/s | 0 W/m² | - |
| 1778044108 | 10° C | 61% | 1233.1 hPa | 0 mm | 0.89 m/s, 84° | 0 W/m² | - |
| 1778043805 | 10° C | 61% | 1232.8 hPa | 0 mm | 0.89 m/s, 50° | 0 W/m² | - |
| 1778043502 | 10° C | 61% | 1233.1 hPa | 0 mm | 0.89 m/s, 76° | 0 W/m² | - |
| 1778043198 | 10° C | 61% | 1232.9 hPa | 0 mm | 0.89 m/s, 72° | 0 W/m² | - |
| 1778042895 | 10.56° C | 61% | 1232.7 hPa | 0 mm | 0.89 m/s, 74° | 0 W/m² | - |
| 1778042593 | 10.56° C | 61% | 1232.9 hPa | 0 mm | 0.89 m/s, 69° | 0 W/m² | - |
| 1778042290 | 10.56° C | 60% | 1232.9 hPa | 0 mm | 0.89 m/s, 76° | 0 W/m² | - |
| 1778041987 | 10.56° C | 60% | 1232.6 hPa | 0 mm | 0.89 m/s, 68° | 0 W/m² | - |
| 1778041686 | 10.56° C | 61% | 1232.6 hPa | 0 mm | 0.89 m/s, 87° | 0 W/m² | - |
| 1778041384 | 10.56° C | 61% | 1232.5 hPa | 0 mm | 0.89 m/s, 76° | 0 W/m² | - |
| 1778041082 | 10.56° C | 62% | 1232.5 hPa | 0 mm | 1.79 m/s, 51° | 0 W/m² | - |
| 1778040779 | 10.56° C | 63% | 1232.6 hPa | 0 mm | 0.89 m/s, 82° | 0 W/m² | - |
| 1778040476 | 10.56° C | 64% | 1232.4 hPa | 0 mm | 1.34 m/s, 101° | 0 W/m² | - |
* Rain latest hour (hover to see other rain measurements)
** Current wind speed in m/s (hover to see current wind gust speed)